Time,TemperatureF,DewpointF,PressureIn,WindDirection,WindDirectionDegrees,WindSpeedMPH,WindSpeedGustMPH,Humidity,HourlyPrecipIn,Conditions,Clouds,dailyrainin,SoftwareType,DateUTC
2013-01-26 00:02:00,13.0,9.0,30.26,East,100,0.0,6.0,85,0.00,,,0.00,,2013-01-26 06:02:00,
2013-01-26 00:12:00,13.0,9.0,30.26,East,100,0.0,6.0,85,0.00,,,0.00,,2013-01-26 06:12:00,
2013-01-26 00:21:00,12.0,8.0,30.26,NNE,16,0.0,2.0,85,0.00,,,0.00,,2013-01-26 06:21:00,
2013-01-26 00:31:00,12.0,8.0,30.26,NE,41,0.0,2.0,85,0.00,,,0.00,,2013-01-26 06:31:00,
2013-01-26 00:41:00,12.0,8.0,30.26,NE,41,0.0,2.0,85,0.00,,,0.00,,2013-01-26 06:41:00,
2013-01-26 00:52:00,11.0,7.0,30.26,North,7,0.0,0.0,85,0.00,,,0.00,,2013-01-26 06:52:00,
2013-01-26 01:01:00,11.0,7.0,30.26,NNE,29,1.0,3.0,85,0.00,,,0.00,,2013-01-26 07:01:00,
2013-01-26 01:12:00,11.0,7.0,30.26,NNE,29,1.0,3.0,85,0.00,,,0.00,,2013-01-26 07:12:00,
2013-01-26 01:21:00,11.0,8.0,30.25,East,81,3.0,5.0,87,0.00,,,0.00,,2013-01-26 07:21:00,
2013-01-26 01:33:00,11.0,8.0,30.25,NNE,26,1.0,2.0,87,0.00,,,0.00,,2013-01-26 07:33:00,
2013-01-26 01:41:00,11.0,8.0,30.25,NNE,26,1.0,2.0,87,0.00,,,0.00,,2013-01-26 07:41:00,
2013-01-26 01:52:00,11.0,8.0,30.24,ESE,109,0.0,0.0,88,0.00,,,0.00,,2013-01-26 07:52:00,
2013-01-26 02:02:00,11.0,8.0,30.24,ESE,109,0.0,0.0,88,0.00,,,0.00,,2013-01-26 08:02:00,
2013-01-26 02:11:00,11.0,8.0,30.24,ESE,109,0.0,0.0,88,0.00,,,0.00,,2013-01-26 08:11:00,
2013-01-26 02:21:00,10.0,7.0,30.24,East,93,2.0,6.0,88,0.00,,,0.00,,2013-01-26 08:21:00,
2013-01-26 02:31:00,10.0,7.0,30.24,ENE,78,0.0,3.0,89,0.00,,,0.00,,2013-01-26 08:31:00,
2013-01-26 02:42:00,10.0,7.0,30.24,ENE,78,0.0,3.0,89,0.00,,,0.00,,2013-01-26 08:42:00,
2013-01-26 02:54:00,10.0,7.0,30.25,ENE,65,0.0,0.0,89,0.00,,,0.00,,2013-01-26 08:54:00,
2013-01-26 03:02:00,10.0,7.0,30.24,ENE,65,0.0,0.0,89,0.00,,,0.00,,2013-01-26 09:02:00,
2013-01-26 03:11:00,10.0,7.0,30.24,ENE,65,0.0,0.0,89,0.00,,,0.00,,2013-01-26 09:11:00,
2013-01-26 03:22:00,10.0,8.0,30.24,ENE,66,0.0,0.0,90,0.00,,,0.00,,2013-01-26 09:22:00,
2013-01-26 03:31:00,10.0,8.0,30.24,ENE,66,0.0,0.0,90,0.00,,,0.00,,2013-01-26 09:31:00,
2013-01-26 03:42:00,10.0,8.0,30.24,ENE,66,0.0,0.0,90,0.00,,,0.00,,2013-01-26 09:42:00,
2013-01-26 03:52:00,9.0,7.0,30.24,NE,52,0.0,0.0,91,0.00,,,0.00,,2013-01-26 09:52:00,
2013-01-26 04:01:00,9.0,7.0,30.24,NE,47,0.0,0.0,92,0.00,,,0.00,,2013-01-26 10:01:00,
2013-01-26 04:11:00,9.0,7.0,30.24,NE,47,0.0,0.0,92,0.00,,,0.00,,2013-01-26 10:11:00,
2013-01-26 04:21:00,9.0,7.0,30.24,ENE,68,1.0,5.0,92,0.00,,,0.00,,2013-01-26 10:21:00,
2013-01-26 04:31:00,9.0,7.0,30.23,ENE,58,1.0,5.0,91,0.00,,,0.00,,2013-01-26 10:31:00,
2013-01-26 04:42:00,9.0,7.0,30.23,ENE,58,1.0,5.0,91,0.00,,,0.00,,2013-01-26 10:42:00,
2013-01-26 04:52:00,9.0,7.0,30.23,East,93,5.0,8.0,90,0.00,,,0.00,,2013-01-26 10:52:00,
2013-01-26 05:01:00,9.0,7.0,30.23,ENE,74,1.0,5.0,90,0.00,,,0.00,,2013-01-26 11:01:00,
2013-01-26 05:12:00,9.0,7.0,30.23,ENE,74,1.0,5.0,90,0.00,,,0.00,,2013-01-26 11:12:00,
2013-01-26 05:22:00,8.0,6.0,30.23,ENE,63,3.0,5.0,90,0.00,,,0.00,,2013-01-26 11:22:00,
2013-01-26 05:32:00,8.0,6.0,30.23,East,91,3.0,7.0,90,0.00,,,0.00,,2013-01-26 11:32:00,
2013-01-26 05:42:00,8.0,6.0,30.23,East,91,3.0,7.0,90,0.00,,,0.00,,2013-01-26 11:42:00,
2013-01-26 05:52:00,8.0,6.0,30.23,SE,125,5.0,7.0,91,0.00,,,0.00,,2013-01-26 11:52:00,
2013-01-26 06:02:00,8.0,6.0,30.23,SE,129,3.0,6.0,91,0.00,,,0.00,,2013-01-26 12:02:00,
2013-01-26 06:12:00,8.0,6.0,30.23,SE,129,3.0,6.0,91,0.00,,,0.00,,2013-01-26 12:12:00,
2013-01-26 06:22:00,8.0,6.0,30.22,SE,126,7.0,7.0,90,0.00,,,0.00,,2013-01-26 12:22:00,
2013-01-26 06:33:00,9.0,7.0,30.22,SE,127,7.0,9.0,90,0.00,,,0.00,,2013-01-26 12:33:00,
2013-01-26 06:42:00,9.0,7.0,30.22,SE,127,7.0,9.0,90,0.00,,,0.00,,2013-01-26 12:42:00,
2013-01-26 06:53:00,9.0,7.0,30.23,SE,126,5.0,7.0,90,0.00,,,0.00,,2013-01-26 12:53:00,
2013-01-26 07:03:00,9.0,6.0,30.22,SE,128,5.0,7.0,89,0.00,,,0.00,,2013-01-26 13:03:00,
2013-01-26 07:12:00,9.0,6.0,30.22,SE,128,5.0,7.0,89,0.00,,,0.00,,2013-01-26 13:12:00,
2013-01-26 07:22:00,9.0,6.0,30.22,ESE,119,5.0,8.0,88,0.00,,,0.00,,2013-01-26 13:22:00,
2013-01-26 07:32:00,9.0,6.0,30.22,ESE,118,3.0,6.0,88,0.00,,,0.00,,2013-01-26 13:32:00,
2013-01-26 07:42:00,9.0,6.0,30.22,ESE,118,3.0,6.0,88,0.00,,,0.00,,2013-01-26 13:42:00,
2013-01-26 07:53:00,9.0,6.0,30.22,SE,141,7.0,8.0,88,0.00,,,0.00,,2013-01-26 13:53:00,
2013-01-26 08:02:00,9.0,6.0,30.22,SSE,147,7.0,10.0,88,0.00,,,0.00,,2013-01-26 14:02:00,
2013-01-26 08:11:00,9.0,6.0,30.22,SSE,147,7.0,10.0,88,0.00,,,0.00,,2013-01-26 14:11:00,
2013-01-26 08:21:00,9.0,6.0,30.22,SE,134,8.0,10.0,88,0.00,,,0.00,,2013-01-26 14:21:00,
2013-01-26 08:32:00,9.0,6.0,30.21,SE,134,8.0,13.0,88,0.00,,,0.00,,2013-01-26 14:32:00,
2013-01-26 08:43:00,9.0,6.0,30.21,SE,134,8.0,13.0,88,0.00,,,0.00,,2013-01-26 14:43:00,
2013-01-26 08:53:00,10.0,7.0,30.21,SE,138,6.0,9.0,86,0.00,,,0.00,,2013-01-26 14:53:00,
2013-01-26 09:02:00,10.0,7.0,30.21,SSE,151,5.0,10.0,86,0.00,,,0.00,,2013-01-26 15:02:00,
2013-01-26 09:12:00,10.0,7.0,30.21,SSE,151,5.0,10.0,86,0.00,,,0.00,,2013-01-26 15:12:00,
2013-01-26 09:22:00,11.0,7.0,30.20,SSE,168,3.0,6.0,84,0.00,,,0.00,,2013-01-26 15:22:00,
2013-01-26 09:32:00,12.0,8.0,30.20,SE,141,5.0,12.0,83,0.00,,,0.00,,2013-01-26 15:32:00,
2013-01-26 09:43:00,12.0,8.0,30.20,SE,141,5.0,12.0,83,0.00,,,0.00,,2013-01-26 15:43:00,
2013-01-26 09:53:00,13.0,9.0,30.19,SSE,150,6.0,13.0,83,0.00,,,0.00,,2013-01-26 15:53:00,
2013-01-26 10:02:00,14.0,9.0,30.19,SE,142,7.0,14.0,80,0.00,,,0.00,,2013-01-26 16:02:00,
2013-01-26 10:12:00,15.0,10.0,30.19,SSE,161,5.0,7.0,80,0.00,,,0.00,,2013-01-26 16:12:00,
2013-01-26 10:22:00,15.0,10.0,30.19,SSE,161,5.0,7.0,80,0.00,,,0.00,,2013-01-26 16:22:00,
2013-01-26 10:32:00,16.0,11.0,30.18,SSE,161,9.0,15.0,79,0.00,,,0.00,,2013-01-26 16:32:00,
2013-01-26 10:42:00,16.0,11.0,30.18,SSE,161,9.0,15.0,79,0.00,,,0.00,,2013-01-26 16:42:00,
2013-01-26 10:53:00,17.0,11.0,30.19,SSE,150,9.0,14.0,77,0.00,,,0.00,,2013-01-26 16:53:00,
2013-01-26 11:03:00,18.0,12.0,30.18,SSE,151,9.0,15.0,76,0.00,,,0.00,,2013-01-26 17:03:00,
2013-01-26 11:12:00,18.0,12.0,30.18,SSE,151,9.0,15.0,76,0.00,,,0.00,,2013-01-26 17:12:00,
2013-01-26 11:22:00,20.0,14.0,30.17,SE,136,9.0,17.0,76,0.00,,,0.00,,2013-01-26 17:22:00,
2013-01-26 11:32:00,21.0,14.0,30.17,SSE,149,7.0,14.0,75,0.00,,,0.00,,2013-01-26 17:32:00,
2013-01-26 11:42:00,21.0,14.0,30.17,SSE,149,7.0,14.0,75,0.00,,,0.00,,2013-01-26 17:42:00,
2013-01-26 11:53:00,22.0,15.0,30.16,SE,145,9.0,14.0,75,0.00,,,0.00,,2013-01-26 17:53:00,
2013-01-26 12:02:00,23.0,16.0,30.15,SSE,161,9.0,15.0,75,0.00,,,0.00,,2013-01-26 18:02:00,
2013-01-26 12:12:00,23.0,16.0,30.15,SSE,161,9.0,15.0,75,0.00,,,0.00,,2013-01-26 18:12:00,
2013-01-26 12:22:00,24.0,17.0,30.15,SSW,193,5.0,10.0,75,0.00,,,0.00,,2013-01-26 18:22:00,
2013-01-26 12:32:00,24.0,18.0,30.14,SSE,159,10.0,17.0,76,0.00,,,0.00,,2013-01-26 18:32:00,
2013-01-26 12:42:00,24.0,18.0,30.14,SSE,159,10.0,17.0,76,0.00,,,0.00,,2013-01-26 18:42:00,
2013-01-26 12:52:00,26.0,19.0,30.12,South,172,3.0,6.0,76,0.00,,,0.00,,2013-01-26 18:52:00,
2013-01-26 13:03:00,26.0,19.0,30.11,SSE,151,10.0,14.0,76,0.00,,,0.00,,2013-01-26 19:03:00,
2013-01-26 13:12:00,26.0,19.0,30.11,SSE,151,10.0,14.0,76,0.00,,,0.00,,2013-01-26 19:12:00,
2013-01-26 13:22:00,27.0,20.0,30.10,SSE,157,7.0,12.0,76,0.00,,,0.00,,2013-01-26 19:22:00,
2013-01-26 13:32:00,27.0,20.0,30.09,South,172,8.0,13.0,76,0.00,,,0.00,,2013-01-26 19:32:00,
2013-01-26 13:42:00,27.0,20.0,30.09,South,172,8.0,13.0,76,0.00,,,0.00,,2013-01-26 19:42:00,
2013-01-26 13:53:00,28.0,21.0,30.08,SSE,168,7.0,13.0,76,0.00,,,0.00,,2013-01-26 19:53:00,
2013-01-26 14:02:00,28.0,21.0,30.08,SSE,160,8.0,13.0,76,0.00,,,0.00,,2013-01-26 20:02:00,
2013-01-26 14:11:00,28.0,21.0,30.08,SSE,160,8.0,13.0,76,0.00,,,0.00,,2013-01-26 20:11:00,
2013-01-26 14:21:00,29.0,22.0,30.05,SE,142,9.0,16.0,75,0.00,,,0.00,,2013-01-26 20:21:00,
2013-01-26 14:32:00,30.0,23.0,30.04,SE,142,8.0,14.0,75,0.00,,,0.00,,2013-01-26 20:32:00,
2013-01-26 14:42:00,30.0,23.0,30.04,SE,142,8.0,14.0,75,0.00,,,0.00,,2013-01-26 20:42:00,
2013-01-26 14:52:00,31.0,24.0,30.03,SSE,159,9.0,14.0,74,0.00,,,0.00,,2013-01-26 20:52:00,
2013-01-26 15:02:00,32.0,25.0,30.03,SSE,158,9.0,15.0,74,0.00,,,0.00,,2013-01-26 21:02:00,
2013-01-26 15:12:00,32.0,25.0,30.03,SSE,158,9.0,15.0,74,0.00,,,0.00,,2013-01-26 21:12:00,
2013-01-26 15:22:00,34.0,26.0,30.03,SSE,149,7.0,13.0,72,0.00,,,0.00,,2013-01-26 21:22:00,
2013-01-26 15:32:00,35.0,26.0,30.02,SSE,167,10.0,15.0,70,0.00,,,0.00,,2013-01-26 21:32:00,
2013-01-26 15:42:00,35.0,26.0,30.02,SSE,167,10.0,15.0,70,0.00,,,0.00,,2013-01-26 21:42:00,
2013-01-26 15:52:00,38.0,28.0,30.01,SE,142,8.0,17.0,66,0.00,,,0.00,,2013-01-26 21:52:00,
2013-01-26 16:01:00,38.0,27.0,30.01,SSE,148,12.0,16.0,65,0.00,,,0.00,,2013-01-26 22:01:00,
2013-01-26 16:11:00,38.0,27.0,30.01,SSE,148,12.0,16.0,65,0.00,,,0.00,,2013-01-26 22:11:00,
2013-01-26 16:21:00,38.0,28.0,30.00,SSE,168,10.0,13.0,67,0.00,,,0.00,,2013-01-26 22:21:00,
2013-01-26 16:31:00,38.0,28.0,30.00,SE,139,10.0,14.0,67,0.00,,,0.00,,2013-01-26 22:31:00,
2013-01-26 16:42:00,38.0,28.0,30.00,SE,139,10.0,14.0,67,0.00,,,0.00,,2013-01-26 22:42:00,
2013-01-26 16:52:00,39.0,29.0,30.00,South,169,8.0,10.0,67,0.00,,,0.00,,2013-01-26 22:52:00,
2013-01-26 17:01:00,39.0,29.0,29.99,SSE,156,10.0,16.0,67,0.00,,,0.00,,2013-01-26 23:01:00,
2013-01-26 17:11:00,39.0,29.0,29.99,SSE,156,10.0,16.0,67,0.00,,,0.00,,2013-01-26 23:11:00,
2013-01-26 17:22:00,39.0,29.0,30.00,SSE,147,8.0,10.0,68,0.00,,,0.00,,2013-01-26 23:22:00,
2013-01-26 17:32:00,39.0,29.0,30.00,SE,138,8.0,12.0,68,0.00,,,0.00,,2013-01-26 23:32:00,
2013-01-26 17:41:00,39.0,29.0,30.00,SE,138,8.0,12.0,68,0.00,,,0.00,,2013-01-26 23:41:00,
2013-01-26 17:52:00,38.0,29.0,29.99,SE,146,9.0,14.0,69,0.00,,,0.00,,2013-01-26 23:52:00,
2013-01-26 18:02:00,38.0,28.0,29.99,South,171,8.0,13.0,68,0.00,,,0.00,,2013-01-27 00:02:00,
2013-01-26 18:11:00,38.0,28.0,29.99,South,171,8.0,13.0,68,0.00,,,0.00,,2013-01-27 00:11:00,
2013-01-26 18:21:00,39.0,29.0,29.99,SSE,168,8.0,16.0,67,0.00,,,0.00,,2013-01-27 00:21:00,
2013-01-26 18:32:00,39.0,29.0,29.99,SSE,164,6.0,12.0,68,0.00,,,0.00,,2013-01-27 00:32:00,
2013-01-26 18:41:00,39.0,29.0,29.99,SSE,164,6.0,12.0,68,0.00,,,0.00,,2013-01-27 00:41:00,
2013-01-26 18:52:00,38.0,29.0,30.00,South,188,5.0,9.0,69,0.00,,,0.00,,2013-01-27 00:52:00,
2013-01-26 19:01:00,38.0,28.0,29.99,South,172,6.0,8.0,68,0.00,,,0.00,,2013-01-27 01:01:00,
2013-01-26 19:11:00,38.0,28.0,29.99,South,172,6.0,8.0,68,0.00,,,0.00,,2013-01-27 01:11:00,
2013-01-26 19:22:00,38.0,28.0,29.99,South,173,6.0,8.0,68,0.00,,,0.00,,2013-01-27 01:22:00,
2013-01-26 19:32:00,38.0,28.0,29.99,SSW,212,5.0,7.0,68,0.00,,,0.00,,2013-01-27 01:32:00,
2013-01-26 19:41:00,38.0,28.0,29.99,SSW,212,5.0,7.0,68,0.00,,,0.00,,2013-01-27 01:41:00,
2013-01-26 19:52:00,38.0,28.0,29.99,SSE,162,5.0,10.0,68,0.00,,,0.00,,2013-01-27 01:52:00,
2013-01-26 20:01:00,38.0,28.0,29.99,South,185,5.0,9.0,68,0.00,,,0.00,,2013-01-27 02:01:00,
2013-01-26 20:11:00,38.0,28.0,29.99,South,185,5.0,9.0,68,0.00,,,0.00,,2013-01-27 02:11:00,
2013-01-26 20:21:00,38.0,28.0,30.00,South,185,1.0,7.0,68,0.00,,,0.00,,2013-01-27 02:21:00,
2013-01-26 20:31:00,38.0,29.0,30.00,SE,145,6.0,10.0,69,0.00,,,0.00,,2013-01-27 02:31:00,
2013-01-26 20:41:00,38.0,29.0,30.00,SE,145,6.0,10.0,69,0.00,,,0.00,,2013-01-27 02:41:00,
2013-01-26 20:52:00,38.0,29.0,29.99,SSE,162,7.0,12.0,70,0.00,,,0.00,,2013-01-27 02:52:00,
2013-01-26 21:02:00,38.0,29.0,29.99,South,184,7.0,12.0,71,0.00,,,0.00,,2013-01-27 03:02:00,
2013-01-26 21:11:00,38.0,29.0,29.99,South,184,7.0,12.0,71,0.00,,,0.00,,2013-01-27 03:11:00,
2013-01-26 21:21:00,38.0,29.0,29.99,SSE,148,10.0,18.0,71,0.00,,,0.00,,2013-01-27 03:21:00,
2013-01-26 21:31:00,38.0,30.0,29.99,South,172,9.0,13.0,72,0.00,,,0.00,,2013-01-27 03:31:00,
2013-01-26 21:42:00,38.0,30.0,29.99,South,172,9.0,13.0,72,0.00,,,0.00,,2013-01-27 03:42:00,
2013-01-26 21:52:00,38.0,30.0,29.99,South,172,5.0,9.0,72,0.00,,,0.00,,2013-01-27 03:52:00,
2013-01-26 22:01:00,37.0,29.0,29.99,SSE,155,8.0,14.0,72,0.00,,,0.00,,2013-01-27 04:01:00,
2013-01-26 22:11:00,37.0,29.0,29.99,SSE,155,8.0,14.0,72,0.00,,,0.00,,2013-01-27 04:11:00,
2013-01-26 22:21:00,37.0,29.0,29.99,SSE,160,8.0,13.0,72,0.00,,,0.00,,2013-01-27 04:21:00,
2013-01-26 22:32:00,37.0,29.0,29.99,SSE,154,9.0,12.0,73,0.00,,,0.00,,2013-01-27 04:32:00,
2013-01-26 22:41:00,37.0,29.0,29.99,SSE,154,9.0,12.0,73,0.00,,,0.00,,2013-01-27 04:41:00,
2013-01-26 22:52:00,36.0,29.0,29.98,SSE,166,6.0,10.0,74,0.00,,,0.00,,2013-01-27 04:52:00,
2013-01-26 23:03:00,36.0,29.0,29.98,South,191,5.0,14.0,74,0.00,,,0.00,,2013-01-27 05:03:00,
2013-01-26 23:12:00,36.0,29.0,29.98,South,191,5.0,14.0,74,0.00,,,0.00,,2013-01-27 05:12:00,
2013-01-26 23:22:00,36.0,29.0,29.98,SSE,158,9.0,14.0,74,0.00,,,0.00,,2013-01-27 05:22:00,
2013-01-26 23:32:00,36.0,29.0,29.98,SSE,161,8.0,12.0,74,0.00,,,0.00,,2013-01-27 05:32:00,
2013-01-26 23:41:00,36.0,29.0,29.98,SSE,161,8.0,12.0,74,0.00,,,0.00,,2013-01-27 05:41:00,
2013-01-26 23:52:00,36.0,29.0,29.97,SSE,155,8.0,9.0,74,0.00,,,0.00,,2013-01-27 05:52:00,